Weather in Mirny

Russia / Arkhangel'skaya Oblast'     62°45′52″N   40°20′09″E
В апреле 2022 года жителям России запретили посещать сайт meteo.paraplan.net по решению Генеральной прокуратуры. Аудитория сайта уменьшилась в 10 раз. Владельцы сайта не видят смысла в поддержке погодного сервера в таких условиях. Сайт будет закрыт в октябре.
temp.,
°C
wind,
m/s
gust,
m/s
humid.,
%
clouds,
%
prec.,
mm/h
press.,
hPa
HPBL,
m
4 october, tue
tue400:00+6ene51295100 0.7 1011578
03:00+6e41197100 1.8 1009482
06:00+9se31197100 0.9 1010559
09:00+9s410890 0.9 1012597
12:00+12s48774 0.0 1012649
15:00+13sse48763 0.0 1013978
18:00+9se399126 0.0 1014252
21:00+9se312945 0.0 1014416
5 october, wed
wed500:00+9se3119593 0.0 1014372
03:00+7se3997100 0.0 1014249
06:00+7se279771 0.0 1013202
09:00+9se3891100 0.0 1013524
12:00+10se3686100 0.0 1012552
15:00+10se2687100 0.0 1012423
18:00+9ese2693100 0.0 1013212
21:00+7se249796 0.3 101295
6 october, thu
thu600:00+8sse129852 0.0 101371
03:00+5s239711 0.0 101354
06:00+4ssw23979 0.0 101350
09:00+6s25885 0.0 1012200
12:00+10ssw47725 0.0 1010679
15:00+10s510695 0.0 1008998
18:00+8s61373100 0.0 1005749
21:00+7ssw61489100 1.3 1003824
7 october, fri
fri700:00+7ssw51292100 0.3 1000781
03:00+8ssw41098100 4.3 999489
06:00+9wsw51193100 2.6 999833
09:00+7wsw41086100 2.8 10011018
12:00+8w4978100 0.1 10021167
15:00+9w51078100 0.3 10031175
18:00+7wsw4118771 0.1 1005574
21:00+7w5118972 0.2 1007797
8 october, sat
sat800:00+8wsw4108053 0.0 1009705
03:00+7sw41090100 0.0 1010585
06:00+7ssw41192100 0.0 1009854
09:00+8ssw51293100 0.7 1008870
12:00+9sw51292100 0.3 1008897
15:00+9ssw51185100 0.3 1007911
18:00+8ssw51286100 0.0 1006797
21:00+8ssw51487100 0.0 1005738